This is the latest recevied weather packets stored in our database for station/object WZ8H. If no packets are shown the sender has not sent any weather packets the latest 1 day(s).
| Time | Temp. | Humidity | Pressure | Rain* | Wind** | Luminosity | Snow |
|---|---|---|---|---|---|---|---|
| 1777961741 | 19.44° C | 70% | 1001.6 hPa | 0 mm | 1.79 m/s, 277° | 0 W/m² | - |
| 1777961446 | 19.44° C | 70% | 1001.8 hPa | 0 mm | 2.24 m/s, 263° | 0 W/m² | - |
| 1777961143 | 19.44° C | 70% | 1001.9 hPa | 0 mm | 2.24 m/s, 281° | 0 W/m² | - |
| 1777960821 | 20° C | 69% | 1001 hPa | 0 mm | 2.24 m/s, 250° | 0 W/m² | - |
| 1777960513 | 19.44° C | 69% | 1000.9 hPa | 0 mm | 2.24 m/s, 203° | 0 W/m² | - |
| 1777960192 | 20° C | 69% | 1001 hPa | 0 mm | 2.24 m/s, 242° | 0 W/m² | - |
| 1777959865 | 20° C | 69% | 1000.9 hPa | 0 mm | 2.24 m/s, 231° | 0 W/m² | - |
| 1777959545 | 19.44° C | 70% | 1000.9 hPa | 0 mm | 2.24 m/s, 225° | 0 W/m² | - |
| 1777959220 | 19.44° C | 70% | 1000.9 hPa | 0 mm | 1.79 m/s, 190° | 0 W/m² | - |
| 1777958894 | 19.44° C | 71% | 1000.9 hPa | 0 mm | 1.79 m/s, 198° | 0 W/m² | - |
| 1777958571 | 19.44° C | 72% | 1001 hPa | 0 mm | 1.79 m/s, 236° | 0 W/m² | - |
| 1777958273 | 19.44° C | 72% | 1001.1 hPa | 0 mm | 2.24 m/s, 254° | 0 W/m² | - |
| 1777957953 | 19.44° C | 72% | 1001.1 hPa | 0 mm | 2.24 m/s, 210° | 0 W/m² | - |
| 1777957623 | 20° C | 71% | 1001.2 hPa | 0 mm | 2.24 m/s, 200° | 0 W/m² | - |
| 1777957296 | 19.44° C | 69% | 1001.3 hPa | 0 mm | 1.79 m/s, 219° | 0 W/m² | - |
| 1777956973 | 19.44° C | 69% | 1001.3 hPa | 0 mm | 1.34 m/s, 214° | 0 W/m² | - |
| 1777956665 | 19.44° C | 69% | 1001.2 hPa | 0 mm | 1.79 m/s, 192° | 0 W/m² | - |
| 1777956365 | 19.44° C | 69% | 1001.3 hPa | 0 mm | 1.79 m/s, 242° | 0 W/m² | - |
| 1777956059 | 19.44° C | 70% | 1001.2 hPa | 0 mm | 1.79 m/s, 204° | 0 W/m² | - |
| 1777955754 | 19.44° C | 71% | 1001.3 hPa | 0 mm | 2.24 m/s, 189° | 0 W/m² | - |
| 1777955452 | 19.44° C | 72% | 1001.3 hPa | 0 mm | 1.79 m/s, 194° | 0 W/m² | - |
| 1777955150 | 19.44° C | 72% | 1001.4 hPa | 0 mm | 1.79 m/s, 192° | 0 W/m² | - |
| 1777954846 | 18.89° C | 72% | 1001.4 hPa | 0 mm | 1.79 m/s, 185° | 0 W/m² | - |
| 1777954544 | 18.89° C | 73% | 1001.5 hPa | 0 mm | 1.79 m/s, 202° | 0 W/m² | - |
| 1777954230 | 18.89° C | 73% | 1001.5 hPa | 0 mm | 1.79 m/s, 236° | 0 W/m² | - |
* Rain latest hour (hover to see other rain measurements)
** Current wind speed in m/s (hover to see current wind gust speed)